[Date Prev][Date Next][Thread Prev][Thread Next] - [Date Index][Thread Index][Author Index]

2 Line ISS Keps 4-22



ISS
1 25544U 98067A   02112.20648148  .00044573  00000-0  59165-3 0  3377
2 25544  51.6383 334.2160 0006632 353.3344 150.3243 15.57753441195295


----
Via the sarex mailing list at AMSAT.ORG courtesy of AMSAT-NA.
To unsubscribe, send "unsubscribe sarex" to Majordomo@amsat.org



AMSAT Top AMSAT Home